Location: Newark
(37.9800°N, 91.3000°W)
Time: 19:07:41
(UTC+00:00)

NOAA 19 - Pass Details

Date: 15 December 2019
Orbit: 840 x 862 km, 99.2° (Epoch: 28 January)

Event Time Altitude Azimuth Distance (km) Brightness Sun altitude
Rises 10:31:22 0° 33° (NNE) 3,433 8.7 -31.1°
Reaches altitude 10° 10:34:43 10° 54° (NE) 2,487 8.2 -30.5°
Maximum altitude 10:38:05 16° 92° (E) 2,061 8.0 -29.8°
Drops below altitude 10° 10:41:25 10° 130° (SE) 2,468 8.3 -29.1°
Sets 10:44:42 0° 151° (SSE) 3,393 8.8 -28.5°
